WA7BMK Weather Reports


Display with metric or nautical units.
time (UTC)temp
F
wind
direction
speed
MPH
gust
MPH
rain 1hr
in
rain 24hr
in
rain mn
in
humidity
%
barometer
mb
20260510153035 52 163 1.0 8.0 0.00 0.00 0.00 86 1018.1
20260510151533 52 0 0.0 3.0 0.00 0.00 0.00 88 1018.0
20260510150036 51 165 0.0 6.0 0.00 0.00 0.00 89 1018.1
20260510144536 50 202 0.0 5.0 0.00 0.00 0.00 91 1018.4
20260510143040 50 0 0.0 2.0 0.00 0.00 0.00 92 1017.8
20260510141538 49 0 1.0 3.0 0.00 0.00 0.00 92 1018.6
20260510140036 48 0 0.0 0.0 0.00 0.00 0.00 92 1018.2
20260510134536 47 0 0.0 0.0 0.00 0.00 0.00 92 1017.1
20260510133035 46 0 0.0 0.0 0.00 0.00 0.00 91 1017.5
20260510131536 46 0 0.0 0.0 0.00 0.00 0.00 91 1018.1
20260510130036 46 0 0.0 0.0 0.00 0.00 0.00 91 1018.3
20260510124557 45 0 0.0 0.0 0.00 0.00 0.00 91 1018.3
20260510123037 46 0 0.0 0.0 0.00 0.00 0.00 90 1018.2
20260510121536 46 0 0.0 0.0 0.00 0.00 0.00 90 1018.1
20260510120035 46 0 0.0 0.0 0.00 0.00 0.00 90 1017.9
20260510114530 46 0 0.0 0.0 0.00 0.00 0.00 89 1017.8
20260510113037 47 0 0.0 0.0 0.00 0.00 0.00 89 1017.7
20260510111558 47 0 0.0 0.0 0.00 0.00 0.00 89 1018.1
20260510110036 47 0 0.0 0.0 0.00 0.00 0.00 89 1018.0
20260510104541 47 0 0.0 0.0 0.00 0.00 0.00 89 1017.7
20260510103042 48 0 0.0 0.0 0.00 0.00 0.00 89 1017.4
20260510101538 48 0 0.0 0.0 0.00 0.00 0.00 89 1017.3
20260510100039 48 0 0.0 0.0 0.00 0.00 0.00 89 1017.3
20260510094544 48 0 0.0 0.0 0.00 0.00 0.00 89 1017.1
20260510093036 48 0 0.0 0.0 0.00 0.00 0.00 89 1017.0
20260510091551 48 0 0.0 0.0 0.00 0.00 0.00 89 1016.8
20260510090038 48 0 0.0 0.0 0.00 0.00 0.00 89 1016.8
20260510084547 48 0 0.0 0.0 0.00 0.00 0.00 88 1016.7
20260510083034 49 0 0.0 0.0 0.00 0.00 0.00 88 1016.5
20260510081540 49 0 0.0 0.0 0.00 0.00 0.00 87 1016.6
20260510080036 49 0 0.0 0.0 0.00 0.00 0.00 87 1016.6
20260510074542 50 0 0.0 0.0 0.00 0.00 0.00 85 1016.4
20260510073040 50 0 0.0 0.0 0.00 0.00 0.00 85 1016.5
20260510071540 51 0 0.0 0.0 0.00 0.00 0.00 84 1016.5
20260510070044 51 0 0.0 0.0 0.00 0.00 0.00 83 1016.5
20260510064553 52 0 0.0 0.0 0.00 0.00 0.00 82 1016.6
20260510063043 52 0 0.0 0.0 0.00 0.00 0.00 81 1016.7
20260510061546 53 0 0.0 0.0 0.00 0.00 0.00 80 1016.7
20260510060040 54 0 0.0 0.0 0.00 0.00 0.00 78 1016.6
20260510054535 55 0 0.0 0.0 0.00 0.00 0.00 78 1016.6
20260510053037 54 0 0.0 0.0 0.00 0.00 0.00 77 1016.7
20260510051536 55 0 0.0 0.0 0.00 0.00 0.00 76 1016.7
20260510050039 56 0 0.0 0.0 0.00 0.00 0.00 76 1016.6
20260510044535 56 0 0.0 0.0 0.00 0.00 0.00 74 1016.6
20260510043036 57 0 0.0 0.0 0.00 0.00 0.00 73 1016.5
20260510041533 57 0 0.0 0.0 0.00 0.00 0.00 72 1016.6
20260510040030 58 0 0.0 0.0 0.00 0.00 0.00 71 1016.6
20260510034539 59 0 0.0 0.0 0.00 0.00 0.00 69 1016.3
20260510033035 60 0 0.0 0.0 0.00 0.00 0.00 67 1016.3
20260510031539 61 0 0.0 0.0 0.00 0.00 0.00 65 1016.2
20260510030031 63 0 0.0 0.0 0.00 0.00 0.00 62 1016.3
20260510024546 65 0 0.0 0.0 0.00 0.00 0.00 60 1016.4
20260510023033 66 0 0.0 0.0 0.00 0.00 0.00 57 1016.8
20260510021535 67 0 0.0 0.0 0.00 0.00 0.00 57 1016.8
20260510020041 67 0 0.0 0.0 0.00 0.00 0.00 57 1016.9
20260510014534 68 0 0.0 0.0 0.00 0.00 0.00 54 1017.0
20260510013031 67 0 0.0 3.0 0.00 0.00 0.00 53 1017.4
20260510011536 68 0 1.0 3.0 0.00 0.00 0.00 53 1017.6
20260510010036 68 0 0.0 2.0 0.00 0.00 0.00 55 1017.6
20260510004535 67 256 0.0 3.0 0.00 0.00 0.00 56 1017.7
20260510003047 67 329 1.0 4.0 0.00 0.00 0.00 56 1018.0
20260510001537 68 338 1.0 6.0 0.00 0.00 0.00 56 1018.0
20260510000037 67 327 1.0 4.0 0.00 0.00 0.00 57 1018.1
20260509234554 67 28 1.0 5.0 0.00 0.00 0.00 58 1018.2
20260509233043 68 0 0.0 4.0 0.00 0.00 0.00 57 1018.3
20260509231545 68 246 0.0 2.0 0.00 0.00 0.00 57 1018.4
20260509230037 68 0 1.0 7.0 0.00 0.00 0.00 59 1018.8
20260509224535 67 286 2.0 8.0 0.00 0.00 0.00 58 1019.1
20260509223036 67 343 1.0 8.0 0.00 0.00 0.00 59 1019.3
20260509221534 67 265 1.0 7.0 0.00 0.00 0.00 56 1019.3
20260509220037 67 0 1.0 4.0 0.00 0.00 0.00 57 1019.5
20260509214533 66 355 1.0 5.0 0.00 0.00 0.00 56 1019.4
20260509213035 66 336 1.0 4.0 0.00 0.00 0.00 57 1019.5
20260509211533 66 0 1.0 5.0 0.00 0.00 0.00 59 1019.6
20260509210036 66 286 0.0 5.0 0.00 0.00 0.00 60 1019.8
20260509204536 66 296 1.0 3.0 0.00 0.00 0.00 62 1020.0
20260509203041 65 329 1.0 4.0 0.00 0.00 0.00 61 1020.0
20260509201540 65 250 2.0 5.0 0.00 0.00 0.00 60 1020.2
20260509200035 65 288 3.0 7.0 0.00 0.00 0.00 62 1020.3
20260509194530 64 23 2.0 6.0 0.00 0.00 0.00 63 1020.4
20260509193039 66 297 2.0 5.0 0.00 0.00 0.00 61 1020.7
20260509191540 66 333 0.0 4.0 0.00 0.00 0.00 62 1020.7
20260509190036 65 0 1.0 5.0 0.00 0.00 0.00 63 1020.7
20260509184541 64 123 1.0 7.0 0.00 0.00 0.00 64 1020.9
20260509183036 65 334 1.0 5.0 0.00 0.00 0.00 63 1020.9
20260509181537 65 112 2.0 6.0 0.00 0.00 0.00 61 1020.9
20260509180036 63 239 1.0 5.0 0.00 0.00 0.00 64 1020.9
20260509174535 63 209 0.0 2.0 0.00 0.00 0.00 65 1021.1
20260509173033 62 313 0.0 4.0 0.00 0.00 0.00 66 1021.3
20260509171537 62 340 1.0 4.0 0.00 0.00 0.00 67 1021.4
20260509170044 60 164 0.0 5.0 0.00 0.00 0.00 69 1021.4
20260509164541 60 0 0.0 2.0 0.00 0.00 0.00 69 1021.5
20260509163052 59 139 2.0 6.0 0.00 0.00 0.00 70 1021.7
20260509161544 59 111 1.0 7.0 0.00 0.00 0.00 73 1021.8
20260509160032 59 155 0.0 6.0 0.00 0.00 0.00 74 1021.9
20260509154539 58 0 0.0 6.0 0.00 0.00 0.00 77 1022.0